Torna al catalogo

STARLINK-11091

AttivoComunicazioniVLEO
NORAD 61207·PAYLOAD·🇺🇸 United States

Lanciato Sep 20, 2024 da Vandenberg Space Force Base

Loading…

Prossimi Passaggi (prossime 24 ore)

TLE

AggiornatoSource: CelesTrak SupGP

Epoca: Sep 14, 2026, 20:46 UTC

1 61207C 24171H   26257.86576389 -.00062670  00000+0 -51612-3 0  2572
2 61207  53.1564 323.5971 0001100  87.7918 223.0707 15.69746035    12

Traccia STARLINK-11091 in tempo reale con AllMySat

Download on the App Store